| time (UTC) | temp C | wind direction | speed KPH | gust KPH | rain 1hr cm | rain 24hr cm | rain mn cm | humidity % | barometer mb |
| 20260904013350 | 20 | 191 | 0.0 | 0.0 | 0.00 | 0.41 | 0.41 | 90 | 1011.4 |
| 20260904012351 | 20 | 191 | 0.0 | 0.0 | 0.00 | 0.41 | 0.41 | 90 | 1011.6 |
| 20260904011350 | 20 | 191 | 0.0 | 0.0 | 0.00 | 0.41 | 0.41 | 90 | 1011.5 |
| 20260904010351 | 20 | 191 | 0.0 | 0.0 | 0.00 | 0.41 | 0.41 | 90 | 1011.5 |
| 20260904005348 | 20 | 191 | 0.0 | 0.0 | 0.00 | 0.41 | 0.41 | 90 | 1011.3 |
| 20260904004823 | 20 | 191 | 0.0 | 0.0 | 0.00 | 0.41 | 0.41 | 90 | 1011.3 |
| 20260904003347 | 20 | 191 | 0.0 | 0.0 | 0.00 | 0.41 | 0.41 | 89 | 1011.3 |
| 20260904002348 | 20 | 191 | 0.0 | 0.0 | 0.00 | 0.41 | 0.41 | 89 | 1010.9 |
| 20260904001348 | 21 | 191 | 0.0 | 0.0 | 0.00 | 0.41 | 0.41 | 89 | 1010.6 |
| 20260904000349 | 21 | 191 | 0.0 | 0.0 | 0.00 | 0.41 | 0.41 | 89 | 1010.6 |
| 20260903235340 | 21 | 191 | 0.0 | 0.0 | 0.00 | 0.41 | 0.41 | 89 | 1010.8 |
| 20260903234340 | 21 | 191 | 0.0 | 0.0 | 0.00 | 0.41 | 0.41 | 88 | 1010.6 |
| 20260903233340 | 21 | 191 | 0.0 | 0.0 | 0.00 | 0.41 | 0.41 | 88 | 1010.6 |
| 20260903232340 | 21 | 191 | 0.0 | 0.0 | 0.00 | 0.41 | 0.41 | 87 | 1010.7 |
| 20260903231340 | 22 | 191 | 0.0 | 0.0 | 0.00 | 0.41 | 0.41 | 87 | 1010.9 |
| 20260903230338 | 22 | 191 | 0.0 | 0.0 | 0.00 | 0.41 | 0.41 | 87 | 1010.9 |
| 20260903225338 | 22 | 191 | 0.0 | 0.0 | 0.00 | 0.41 | 0.41 | 87 | 1010.7 |
| 20260903224337 | 22 | 191 | 0.0 | 0.0 | 0.00 | 0.41 | 0.41 | 87 | 1010.7 |
| 20260903223337 | 22 | 191 | 0.0 | 0.0 | 0.00 | 0.41 | 0.41 | 86 | 1010.7 |
| 20260903222339 | 22 | 191 | 0.0 | 0.0 | 0.00 | 0.41 | 0.41 | 86 | 1011.3 |
| 20260903221336 | 22 | 191 | 0.0 | 0.0 | 0.00 | 0.41 | 0.41 | 86 | 1011.3 |
| 20260903220337 | 22 | 191 | 0.0 | 0.0 | 0.00 | 0.41 | 0.41 | 85 | 1011.3 |
| 20260903215820 | 22 | 191 | 0.0 | 0.0 | 0.00 | 0.41 | 0.41 | 85 | 1011.3 |
| 20260903214336 | 22 | 191 | 0.0 | 0.0 | 0.00 | 0.41 | 0.41 | 85 | 1011.1 |
| 20260903213336 | 23 | 191 | 0.0 | 0.0 | 0.00 | 0.41 | 0.41 | 84 | 1011.1 |
| 20260903212336 | 23 | 191 | 0.0 | 0.0 | 0.00 | 0.41 | 0.41 | 84 | 1011.3 |
| 20260903211327 | 23 | 191 | 0.0 | 0.0 | 0.00 | 0.41 | 0.41 | 84 | 1011.2 |
| 20260903210326 | 23 | 190 | 0.0 | 0.0 | 0.00 | 0.41 | 0.41 | 85 | 1011.2 |
| 20260903205326 | 23 | 191 | 0.0 | 0.0 | 0.00 | 0.41 | 0.41 | 84 | 1011.2 |
| 20260903204325 | 23 | 191 | 0.0 | 0.0 | 0.00 | 0.41 | 0.41 | 84 | 1011.3 |
| 20260903203804 | 23 | 129 | 0.0 | 0.0 | 0.00 | 0.41 | 0.41 | 84 | 1011.3 |
| 20260903202323 | 23 | 129 | 0.0 | 0.0 | 0.00 | 0.41 | 0.41 | 84 | 1011.3 |
| 20260903201325 | 23 | 129 | 0.0 | 0.0 | 0.00 | 0.41 | 0.41 | 83 | 1011.3 |
| 20260903200806 | 23 | 129 | 0.0 | 0.0 | 0.00 | 0.41 | 0.41 | 83 | 1011.3 |
| 20260903195324 | 22 | 94 | 0.0 | 0.0 | 0.00 | 0.41 | 0.41 | 84 | 1011.6 |
| 20260903194323 | 22 | 155 | 0.0 | 0.0 | 0.00 | 0.41 | 0.41 | 84 | 1011.8 |
| 20260903193325 | 22 | 155 | 0.0 | 0.0 | 0.00 | 0.41 | 0.41 | 84 | 1011.8 |
| 20260903192316 | 22 | 156 | 0.0 | 0.0 | 0.00 | 0.41 | 0.41 | 84 | 1011.9 |
| 20260903191315 | 22 | 161 | 0.0 | 0.0 | 0.00 | 0.41 | 0.41 | 85 | 1011.9 |
| 20260903190315 | 22 | 139 | 0.0 | 0.0 | 0.00 | 0.41 | 0.41 | 85 | 1011.9 |
| 20260903185746 | 22 | 85 | 0.0 | 0.0 | 0.00 | 0.41 | 0.41 | 84 | 1012.3 |
| 20260903184753 | 22 | 59 | 1.6 | 4.8 | 0.00 | 0.41 | 0.41 | 85 | 1012.3 |
| 20260903183311 | 21 | 75 | 0.0 | 4.8 | 0.00 | 0.41 | 0.41 | 85 | 1012.3 |
| 20260903182309 | 21 | 180 | 0.0 | 3.2 | 0.00 | 0.41 | 0.41 | 85 | 1012.4 |
| 20260903181311 | 21 | 152 | 1.6 | 4.8 | 0.00 | 0.41 | 0.41 | 86 | 1012.5 |
| 20260903180309 | 21 | 112 | 1.6 | 3.2 | 0.00 | 0.41 | 0.41 | 87 | 1012.5 |
| 20260903175310 | 20 | 59 | 0.0 | 4.8 | 0.00 | 0.41 | 0.41 | 87 | 1012.8 |
| 20260903174755 | 20 | 59 | 0.0 | 4.8 | 0.00 | 0.41 | 0.41 | 87 | 1012.8 |
| 20260903173311 | 20 | 50 | 0.0 | 4.8 | 0.00 | 0.41 | 0.41 | 88 | 1012.8 |
| 20260903172750 | 20 | 69 | 0.0 | 3.2 | 0.00 | 0.41 | 0.41 | 90 | 1012.9 |
| 20260903171752 | 20 | 71 | 0.0 | 3.2 | 0.00 | 0.41 | 0.41 | 90 | 1012.7 |
| 20260903170310 | 20 | 68 | 0.0 | 3.2 | 0.00 | 0.41 | 0.41 | 91 | 1012.7 |
| 20260903165259 | 20 | 68 | 0.0 | 1.6 | 0.00 | 0.41 | 0.41 | 92 | 1012.8 |
| 20260903164300 | 19 | 68 | 0.0 | 1.6 | 0.00 | 0.41 | 0.41 | 92 | 1012.8 |
| 20260903163300 | 19 | 69 | 0.0 | 3.2 | 0.00 | 0.41 | 0.41 | 93 | 1012.8 |
| 20260903162258 | 19 | 356 | 0.0 | 1.6 | 0.00 | 0.41 | 0.41 | 93 | 1012.9 |
| 20260903161251 | 18 | 301 | 0.0 | 3.2 | 0.00 | 0.41 | 0.41 | 93 | 1012.9 |
| 20260903160729 | 18 | 301 | 0.0 | 4.8 | 0.00 | 0.41 | 0.41 | 93 | 1012.9 |
| 20260903155252 | 18 | 301 | 0.0 | 3.2 | 0.00 | 0.41 | 0.41 | 93 | 1013.0 |
| 20260903154250 | 18 | 301 | 0.0 | 1.6 | 0.00 | 0.41 | 0.41 | 93 | 1013.3 |
| 20260903153235 | 18 | 301 | 0.0 | 0.0 | 0.00 | 0.41 | 0.41 | 94 | 1013.3 |
| 20260903152235 | 18 | 142 | 0.0 | 0.0 | 0.00 | 0.41 | 0.41 | 94 | 1013.6 |
| 20260903151236 | 18 | 143 | 0.0 | 0.0 | 0.00 | 0.41 | 0.41 | 94 | 1013.5 |
| 20260903150235 | 18 | 143 | 0.0 | 0.0 | 0.00 | 0.41 | 0.41 | 94 | 1013.5 |
| 20260903145235 | 17 | 301 | 0.0 | 0.0 | 0.00 | 0.41 | 0.41 | 94 | 1013.7 |
| 20260903144235 | 17 | 301 | 0.0 | 0.0 | 0.00 | 0.41 | 0.41 | 94 | 1013.8 |
| 20260903143728 | 17 | 301 | 0.0 | 0.0 | 0.00 | 0.41 | 0.41 | 93 | 1013.8 |
| 20260903142235 | 17 | 301 | 0.0 | 0.0 | 0.00 | 0.41 | 0.41 | 94 | 1013.8 |
| 20260903141237 | 17 | 301 | 0.0 | 0.0 | 0.00 | 0.41 | 0.41 | 94 | 1014.0 |
| 20260903140219 | 17 | 142 | 0.0 | 0.0 | 0.00 | 0.41 | 0.41 | 94 | 1014.0 |
| 20260903135219 | 17 | 142 | 0.0 | 0.0 | 0.00 | 0.41 | 0.41 | 94 | 1014.3 |
| 20260903134219 | 16 | 301 | 0.0 | 0.0 | 0.00 | 0.41 | 0.41 | 94 | 1014.1 |
| 20260903133219 | 16 | 301 | 0.0 | 0.0 | 0.00 | 0.41 | 0.41 | 93 | 1014.1 |
| 20260903132220 | 16 | 301 | 0.0 | 0.0 | 0.00 | 0.41 | 0.41 | 93 | 1014.0 |
| 20260903131210 | 16 | 301 | 0.0 | 0.0 | 0.00 | 0.41 | 0.41 | 93 | 1014.2 |
| 20260903130209 | 16 | 301 | 0.0 | 0.0 | 0.00 | 0.41 | 0.41 | 93 | 1014.2 |
| 20260903125209 | 16 | 301 | 0.0 | 0.0 | 0.00 | 0.41 | 0.41 | 93 | 1014.3 |
| 20260903124208 | 16 | 301 | 0.0 | 0.0 | 0.00 | 0.41 | 0.41 | 93 | 1014.5 |
| 20260903123207 | 16 | 301 | 0.0 | 0.0 | 0.00 | 0.41 | 0.41 | 93 | 1014.5 |
| 20260903122208 | 16 | 301 | 0.0 | 0.0 | 0.00 | 0.41 | 0.41 | 93 | 1014.6 |
| 20260903121153 | 16 | 301 | 0.0 | 0.0 | 0.00 | 0.41 | 0.41 | 93 | 1014.6 |
| 20260903120152 | 16 | 301 | 0.0 | 0.0 | 0.00 | 0.41 | 0.41 | 93 | 1014.6 |
| 20260903115154 | 16 | 301 | 0.0 | 1.6 | 0.00 | 0.41 | 0.41 | 93 | 1014.9 |
| 20260903114153 | 16 | 301 | 0.0 | 1.6 | 0.00 | 0.41 | 0.41 | 93 | 1014.9 |
| 20260903113634 | 16 | 301 | 0.0 | 0.0 | 0.00 | 0.41 | 0.41 | 93 | 1014.9 |
| 20260903112153 | 16 | 301 | 0.0 | 0.0 | 0.00 | 0.41 | 0.41 | 93 | 1014.9 |
| 20260903111152 | 16 | 301 | 0.0 | 0.0 | 0.00 | 0.41 | 0.41 | 93 | 1014.9 |
| 20260903110152 | 16 | 143 | 0.0 | 0.0 | 0.00 | 0.41 | 0.41 | 92 | 1014.9 |
| 20260903105152 | 16 | 143 | 0.0 | 0.0 | 0.00 | 0.41 | 0.41 | 92 | 1014.9 |
| 20260903104150 | 16 | 143 | 0.0 | 0.0 | 0.03 | 0.41 | 0.41 | 92 | 1014.9 |
| 20260903103154 | 16 | 143 | 0.0 | 0.0 | 0.05 | 0.41 | 0.41 | 92 | 1014.9 |
| 20260903102151 | 16 | 143 | 0.0 | 0.0 | 0.05 | 0.41 | 0.41 | 92 | 1014.9 |
| 20260903101617 | 16 | 143 | 0.0 | 0.0 | 0.13 | 0.41 | 0.41 | 92 | 1014.8 |
| 20260903100138 | 16 | 143 | 0.0 | 0.0 | 0.15 | 0.41 | 0.41 | 92 | 1014.8 |
| 20260903095137 | 16 | 143 | 0.0 | 1.6 | 0.18 | 0.41 | 0.41 | 92 | 1014.9 |
| 20260903094611 | 16 | 143 | 0.0 | 3.2 | 0.20 | 0.38 | 0.38 | 91 | 1015.0 |
| 20260903093136 | 16 | 143 | 0.0 | 0.0 | 0.18 | 0.36 | 0.36 | 91 | 1015.0 |
| 20260903092138 | 16 | 143 | 0.0 | 0.0 | 0.18 | 0.36 | 0.36 | 91 | 1015.5 |
| 20260903091131 | 16 | 143 | 0.0 | 0.0 | 0.10 | 0.28 | 0.28 | 91 | 1015.3 |
| 20260903090131 | 16 | 143 | 0.0 | 3.2 | 0.08 | 0.25 | 0.25 | 91 | 1015.3 |
| 20260903085130 | 16 | 176 | 0.0 | 4.8 | 0.08 | 0.18 | 0.23 | 90 | 1015.4 |
| 20260903084130 | 16 | 202 | 0.0 | 3.2 | 0.18 | 0.18 | 0.18 | 90 | 1015.4 |
| 20260903083607 | 16 | 202 | 0.0 | 0.0 | 0.18 | 0.18 | 0.18 | 89 | 1015.4 |
| 20260903082129 | 16 | 203 | 0.0 | 0.0 | 0.18 | 0.18 | 0.18 | 89 | 1015.5 |
| 20260903081129 | 17 | 203 | 0.0 | 0.0 | 0.18 | 0.18 | 0.18 | 88 | 1015.2 |
| 20260903080128 | 17 | 202 | 0.0 | 3.2 | 0.18 | 0.18 | 0.18 | 87 | 1015.2 |
| 20260903075128 | 17 | 301 | 1.6 | 6.4 | 0.10 | 0.10 | 0.13 | 86 | 1015.5 |
| 20260903074128 | 17 | 214 | 0.0 | 6.4 | 0.00 | 0.00 | 0.00 | 86 | 1015.5 |
| 20260903073129 | 17 | 153 | 1.6 | 4.8 | 0.00 | 0.00 | 0.00 | 86 | 1015.5 |
| 20260903072603 | 17 | 191 | 0.0 | 4.8 | 0.00 | 0.00 | 0.00 | 86 | 1015.7 |
| 20260903071125 | 17 | 173 | 0.0 | 6.4 | 0.00 | 0.00 | 0.00 | 86 | 1015.7 |
| 20260903070121 | 17 | 148 | 0.0 | 4.8 | 0.00 | 0.00 | 0.00 | 86 | 1015.7 |
| 20260903065559 | 17 | 169 | 1.6 | 9.7 | 0.00 | 0.00 | 0.00 | 86 | 1016.0 |
| 20260903064120 | 17 | 180 | 3.2 | 11.3 | 0.00 | 0.00 | 0.00 | 86 | 1016.7 |
| 20260903063120 | 17 | 209 | 1.6 | 4.8 | 0.00 | 0.00 | 0.00 | 86 | 1016.7 |
| 20260903062120 | 17 | 153 | 1.6 | 8.0 | 0.00 | 0.00 | 0.00 | 86 | 1017.0 |
| 20260903061120 | 17 | 91 | 0.0 | 6.4 | 0.00 | 0.00 | 0.00 | 86 | 1017.4 |
| 20260903060121 | 17 | 181 | 0.0 | 6.4 | 0.00 | 0.00 | 0.00 | 86 | 1017.4 |
| 20260903055121 | 17 | 191 | 1.6 | 6.4 | 0.00 | 0.00 | 0.00 | 86 | 1017.7 |
| 20260903054104 | 17 | 211 | 0.0 | 6.4 | 0.00 | 0.00 | 0.00 | 86 | 1018.1 |
| 20260903053104 | 17 | 179 | 0.0 | 3.2 | 0.00 | 0.00 | 0.00 | 86 | 1018.1 |
| 20260903052103 | 17 | 224 | 1.6 | 8.0 | 0.00 | 0.00 | 0.00 | 86 | 1017.7 |
| 20260903051535 | 17 | 193 | 1.6 | 6.4 | 0.00 | 0.00 | 0.00 | 86 | 1017.5 |
| 20260903050101 | 17 | 206 | 1.6 | 8.0 | 0.00 | 0.00 | 0.00 | 86 | 1017.5 |
| 20260903045054 | 17 | 138 | 1.6 | 8.0 | 0.00 | 0.00 | 0.00 | 87 | 1017.9 |
| 20260903044054 | 17 | 169 | 0.0 | 4.8 | 0.00 | 0.00 | 0.00 | 86 | 1018.3 |
| 20260903043054 | 17 | 169 | 0.0 | 6.4 | 0.00 | 0.00 | 0.00 | 86 | 1018.3 |
| 20260903043017 | 17 | 185 | 0.0 | 4.8 | 0.00 | 0.00 | 0.00 | 86 | 1018.2 |
| 20260903041057 | 17 | 185 | 0.0 | 3.2 | 0.00 | 0.00 | 0.00 | 86 | 1018.2 |
| 20260903040054 | 17 | 185 | 0.0 | 3.2 | 0.00 | 0.00 | 0.00 | 86 | 1018.2 |
| 20260903040014 | 17 | 188 | 0.0 | 0.0 | 0.00 | 0.00 | 0.00 | 86 | 1018.1 |
| 20260903034048 | 17 | 188 | 0.0 | 0.0 | 0.00 | 0.00 | 0.00 | 85 | 1018.2 |
| 20260903033047 | 17 | 188 | 0.0 | 4.8 | 0.00 | 0.00 | 0.00 | 86 | 1018.2 |
| 20260903032045 | 17 | 189 | 0.0 | 3.2 | 0.00 | 0.00 | 0.00 | 85 | 1018.7 |
| 20260903031043 | 17 | 189 | 0.0 | 4.8 | 0.00 | 0.00 | 0.00 | 85 | 1018.7 |
| 20260903030044 | 17 | 173 | 0.0 | 0.0 | 0.00 | 0.00 | 0.00 | 85 | 1018.7 |
| 20260903025043 | 17 | 173 | 0.0 | 0.0 | 0.00 | 0.00 | 0.00 | 85 | 1019.1 |
| 20260903024042 | 17 | 173 | 0.0 | 0.0 | 0.00 | 0.00 | 0.00 | 85 | 1019.1 |
| 20260903023035 | 17 | 173 | 0.0 | 0.0 | 0.00 | 0.00 | 0.00 | 84 | 1019.1 |
| 20260903022033 | 17 | 173 | 0.0 | 0.0 | 0.00 | 0.00 | 0.00 | 84 | 1019.1 |
| 20260903021033 | 18 | 173 | 0.0 | 0.0 | 0.00 | 0.00 | 0.00 | 84 | 1019.1 |
| 20260903020032 | 18 | 173 | 0.0 | 0.0 | 0.00 | 0.00 | 0.00 | 84 | 1019.1 |
| 20260903015507 | 18 | 173 | 0.0 | 0.0 | 0.00 | 0.00 | 0.00 | 84 | 1019.3 |
| 20260903014031 | 18 | 173 | 1.6 | 6.4 | 0.00 | 0.00 | 0.00 | 83 | 1019.2 |